Date String (YYYY-MM-DD hh:mm:ss) UTC,Instrument flags,Ambient pressure (hPa),Sample flow (lpm),Bypass flow (lpm),Sample temperature (°C),Ambient temperature (°C),ASC tube jacket temperature (°C),LED temperature (°C),Box temperature (°C),Sample RH (%),Span deviation,Mass concentration (μg/m³),Mass concentration (μg/m³),Mass concentration (μg/m³)
DateTimeUTC,F1_M11,P_M11,Q1_M11,Q2_M11,T1_M11,T2_M11,T3_M11,T4_M11,T5_M11,U1_M11,ZSPAN_M11,X0_M11,X2_M11,X1_M11
2022-05-28 23:00:00,,0812.8,5.01,0.00,29.2,27.3,00.0,38.0,31.0,09.0,0000.0,0008.11,0002.90,0001.43
2022-05-28 23:01:00,,0812.8,5.01,0.00,29.2,27.4,00.0,38.0,31.0,08.5,0000.0,0008.18,0002.94,0001.44
2022-05-28 23:02:00,,0812.8,4.99,0.00,29.2,27.5,00.0,38.0,31.0,08.7,0000.0,0008.29,0002.96,0001.43
2022-05-28 23:03:00,,0812.8,5.00,0.00,29.2,27.7,00.0,38.0,31.1,09.3,0000.0,0008.43,0002.98,0001.42
2022-05-28 23:04:00,,0812.9,5.01,0.00,29.2,27.8,00.0,38.0,31.1,09.1,0000.0,0008.70,0002.91,0001.41
2022-05-28 23:05:00,,0813.0,4.99,0.00,29.2,28.0,00.0,38.1,31.1,08.8,0000.0,0008.49,0002.89,0001.40
2022-05-28 23:06:00,,0813.0,5.01,0.00,29.2,28.1,00.0,38.1,31.2,09.3,0000.0,0008.59,0002.92,0001.37
2022-05-28 23:07:00,,0813.1,5.00,0.00,29.3,28.2,00.0,38.1,31.2,09.2,0000.0,0008.59,0002.92,0001.37
2022-05-28 23:08:00,,0812.9,5.00,0.00,29.3,28.3,00.0,38.1,31.3,09.1,0000.0,0008.35,0002.79,0001.37
2022-05-28 23:09:00,,0812.6,4.99,0.00,29.3,28.4,00.0,38.1,31.3,09.1,0000.0,0008.21,0002.79,0001.37
2022-05-28 23:10:00,,0812.7,4.99,0.00,29.4,28.5,00.0,38.2,31.3,08.7,0000.0,0008.13,0002.87,0001.38
2022-05-28 23:11:00,,0812.8,5.00,0.00,29.4,28.4,00.0,38.2,31.3,08.7,0000.0,0008.09,0002.83,0001.37
2022-05-28 23:12:00,,0812.9,4.99,0.00,29.4,27.7,00.0,38.1,31.1,09.2,0000.0,0008.13,0002.76,0001.36
2022-05-28 23:13:00,,0812.8,4.99,0.00,29.3,27.3,00.0,38.1,31.0,09.1,0000.0,0008.34,0002.77,0001.35
2022-05-28 23:14:00,,0812.8,5.01,0.00,29.3,27.3,00.0,38.1,31.0,09.2,0000.0,0008.27,0002.77,0001.34
2022-05-28 23:15:00,,0812.8,4.99,0.00,29.2,27.4,00.0,38.1,31.0,09.2,0000.0,0008.33,0002.76,0001.32
2022-05-28 23:16:00,,0812.8,4.99,0.00,29.2,27.5,00.0,38.1,31.0,09.1,0000.0,0008.54,0002.77,0001.31
2022-05-28 23:17:00,,0813.0,5.00,0.00,29.2,27.7,00.0,38.1,31.1,09.5,0000.0,0009.18,0002.73,0001.30
2022-05-28 23:18:00,,0813.0,5.01,0.00,29.2,27.8,00.0,38.1,31.1,09.7,0000.0,0009.18,0002.70,0001.29
2022-05-28 23:19:00,,0812.9,5.01,0.00,29.2,28.0,00.0,38.1,31.1,09.8,0000.0,0009.18,0002.69,0001.27
2022-05-28 23:20:00,,0812.9,4.98,0.00,29.3,28.1,00.0,38.1,31.2,09.7,0000.0,0009.13,0002.67,0001.27
2022-05-28 23:21:00,,0812.9,5.00,0.00,29.3,28.2,00.0,38.1,31.2,09.5,0000.0,0008.87,0002.65,0001.26
2022-05-28 23:22:00,,0812.9,5.00,0.00,29.3,28.3,00.0,38.1,31.3,09.3,0000.0,0008.35,0002.57,0001.26
2022-05-28 23:23:00,,0812.9,5.00,0.00,29.4,28.4,00.0,38.2,31.3,09.7,0000.0,0008.71,0002.62,0001.25
2022-05-28 23:24:00,,0812.8,5.01,0.00,29.4,28.5,00.0,38.2,31.3,09.4,0000.0,0008.42,0002.65,0001.26
2022-05-28 23:25:00,,0812.8,4.99,0.00,29.4,28.4,00.0,38.2,31.3,09.6,0000.0,0008.69,0002.73,0001.26
2022-05-28 23:26:00,,0812.8,4.99,0.00,29.4,27.5,00.0,38.1,31.1,09.5,0000.0,0008.90,0002.83,0001.26
2022-05-28 23:27:00,,0812.8,5.01,0.00,29.3,26.8,00.0,38.1,30.9,09.4,0000.0,0008.93,0002.89,0001.25
2022-05-28 23:28:00,,0812.8,4.98,0.00,29.2,26.7,00.0,38.0,30.8,09.5,0000.0,0008.22,0002.88,0001.24
2022-05-28 23:29:00,,0812.8,5.01,0.00,29.1,26.8,00.0,38.0,30.8,09.2,0000.0,0008.40,0002.86,0001.23
2022-05-28 23:30:00,,0812.7,4.99,0.00,29.1,26.9,00.0,38.0,30.8,09.8,0000.0,0008.36,0002.83,0001.22
2022-05-28 23:31:00,,0812.7,4.99,0.00,29.1,27.1,00.0,38.0,30.8,09.7,0000.0,0008.33,0002.81,0001.21
2022-05-28 23:32:00,,0812.8,5.00,0.00,29.1,27.3,00.0,38.0,30.9,09.6,0000.0,0008.26,0002.73,0001.19
2022-05-28 23:33:00,,0812.8,5.01,0.00,29.1,27.5,00.0,38.0,30.9,09.5,0000.0,0008.14,0002.68,0001.16
2022-05-28 23:34:00,,0812.9,5.00,0.00,29.1,27.6,00.0,38.0,31.0,09.8,0000.0,0007.77,0002.61,0001.14
2022-05-28 23:35:00,,0812.9,5.00,0.00,29.1,27.8,00.0,38.0,31.0,10.0,0000.0,0008.08,0002.54,0001.12
2022-05-28 23:36:00,,0812.8,5.00,0.00,29.1,27.9,00.0,38.0,31.1,10.2,0000.0,0008.18,0002.50,0001.11
2022-05-28 23:37:00,,0812.8,4.99,0.00,29.1,28.0,00.0,38.0,31.1,10.1,0000.0,0007.60,0002.38,0001.09
2022-05-28 23:38:00,,0812.8,5.00,0.00,29.2,28.1,00.0,38.0,31.1,09.7,0000.0,0007.55,0002.34,0001.07
2022-05-28 23:39:00,,0812.8,4.99,0.00,29.2,28.2,00.0,38.1,31.2,09.5,0000.0,0007.83,0002.35,0001.07
2022-05-28 23:40:00,,0812.9,5.01,0.00,29.3,28.3,00.0,38.1,31.2,09.7,0000.0,0008.00,0002.38,0001.07
2022-05-28 23:41:00,,0812.9,5.00,0.00,29.3,28.4,00.0,38.1,31.2,09.9,0000.0,0008.44,0002.40,0001.05
2022-05-28 23:42:00,,0812.8,5.01,0.00,29.3,28.4,00.0,38.1,31.3,09.8,0000.0,0009.47,0002.38,0001.04
2022-05-28 23:43:00,,0812.8,5.00,0.00,29.4,28.5,00.0,38.1,31.3,09.6,0000.0,0009.80,0002.38,0001.03
2022-05-28 23:44:00,,0812.9,4.99,0.00,29.4,28.6,00.0,38.2,31.3,09.4,0000.0,0010.09,0002.38,0001.02
2022-05-28 23:45:00,,0812.9,5.00,0.00,29.4,28.5,00.0,38.2,31.3,09.6,0000.0,0010.10,0002.41,0001.01
2022-05-28 23:46:00,,0812.9,5.01,0.00,29.4,27.8,00.0,38.1,31.2,09.5,0000.0,0009.63,0002.40,0001.01
2022-05-28 23:47:00,,0812.9,4.99,0.00,29.3,26.8,00.0,38.1,30.9,10.2,0000.0,0009.34,0002.35,0001.01
2022-05-28 23:48:00,,0812.9,5.01,0.00,29.2,26.6,00.0,38.0,30.8,09.9,0000.0,0009.84,0002.32,0001.00
2022-05-28 23:49:00,,0812.9,5.00,0.00,29.1,26.7,00.0,38.0,30.8,09.8,0000.0,0009.82,0002.34,0001.01
2022-05-28 23:50:00,,0812.9,5.00,0.00,29.1,26.8,00.0,38.0,30.8,09.7,0000.0,0009.51,0002.35,0001.00
2022-05-28 23:51:00,,0812.8,4.99,0.00,29.1,27.0,00.0,38.0,30.8,09.6,0000.0,0008.96,0002.27,0000.99
2022-05-28 23:52:00,,0812.9,5.00,0.00,29.1,27.2,00.0,38.0,30.9,09.9,0000.0,0008.74,0002.24,0000.99
2022-05-28 23:53:00,,0812.8,4.99,0.00,29.1,27.4,00.0,38.0,30.9,09.7,0000.0,0008.49,0002.28,0000.99
2022-05-28 23:54:00,,0812.9,5.00,0.00,29.1,27.6,00.0,38.0,30.9,09.8,0000.0,0008.22,0002.24,0000.98
2022-05-28 23:55:00,,0812.8,4.99,0.00,29.1,27.7,00.0,38.0,31.0,09.8,0000.0,0008.08,0002.24,0000.97
2022-05-28 23:56:00,,0812.8,5.01,0.00,29.1,27.9,00.0,38.0,31.0,09.4,0000.0,0008.14,0002.22,0000.98
2022-05-28 23:57:00,,0812.9,4.99,0.00,29.1,28.0,00.0,38.0,31.1,09.8,0000.0,0008.16,0002.21,0000.98
2022-05-28 23:58:00,,0812.9,5.00,0.00,29.2,28.1,00.0,38.0,31.1,10.1,0000.0,0008.31,0002.27,0000.97
2022-05-28 23:59:00,,0813.0,5.00,0.00,29.2,28.2,00.0,38.0,31.1,10.4,0000.0,0007.59,0002.28,0000.96
